Location: Los Ranchitos
(37.9930°N, 122.5425°W)
Time: 02:48:33
(UTC+00:00)

Cosmos 1536 Rocket - Pass Details

Date: 21 September 2020
Orbit: 606 x 632 km, 82.5° (Epoch: 27 October)

Event Time Altitude Azimuth Distance (km) Brightness Sun altitude
Rises 03:14:26 0° 2° (N) 2,917 7.1 -13.6°
Reaches altitude 10° 03:16:50 10° 12° (NNE) 2,009 6.2 -14.1°
Maximum altitude 03:20:54 34° 78° (ENE) 1,044 4.2 -14.8°
Enters shadow 03:22:44 24° 122° (ESE) 1,302 4.6 -15.2°
